• In Lithuania
  • List of Countries
  • For 7 days
  • Water Temperature
  • Satellite Maps
  • Weather Map
  • Weather Widgets
  • user-avatar
    Login

    Hourly Weather Wlora

    Today, 18 December, Monday

    Time Temperature Precipitation Wind Pressure Humidity
    00:00 +7°C° 0.2 mm 6 mps 761 mmHg 88%
    01:00 +7°C° 0 mm 6 mps 761 mmHg 89%
    02:00 +7°C° 0.3 mm 6 mps 761 mmHg 89%
    03:00 +7°C° 0.3 mm 6 mps 762 mmHg 89%
    04:00 +7°C° 0.3 mm 6 mps 762 mmHg 89%
    05:00 +7°C° 0.3 mm 6 mps 762 mmHg 89%
    06:00 +7°C° 0.3 mm 6 mps 762 mmHg 90%
    07:00 +7°C° 0 mm 6 mps 762 mmHg 91%
    08:00 +7°C° 0.1 mm 5 mps 762 mmHg 86%
    09:00 +8°C° 0.1 mm 5 mps 762 mmHg 81%
    10:00 +8°C° 0.1 mm 5 mps 763 mmHg 76%
    11:00 +8°C° 0.1 mm 5 mps 762 mmHg 73%
    12:00 +8°C° 0.1 mm 5 mps 762 mmHg 70%
    13:00 +9°C° 0.1 mm 6 mps 762 mmHg 67%
    14:00 +8°C° 0.2 mm 6 mps 762 mmHg 71%
    15:00 +6°C° 0.2 mm 7 mps 762 mmHg 75%
    16:00 +5°C° 0.2 mm 7 mps 763 mmHg 79%
    17:00 +5°C° 0.3 mm 7 mps 763 mmHg 80%
    18:00 +4°C° 0.3 mm 7 mps 763 mmHg 81%
    19:00 +4°C° 0.3 mm 7 mps 764 mmHg 82%
    20:00 +4°C° 0.2 mm 6 mps 764 mmHg 81%
    21:00 +3°C° 0.2 mm 6 mps 765 mmHg 81%
    22:00 +3°C° 0.2 mm 5 mps 765 mmHg 80%
    23:00 +3°C° 0.1 mm 5 mps 765 mmHg 80%

    Tomorrow, 19 December, Tuesday

    Time Temperature Precipitation Wind Pressure Humidity
    00:00 +3°C° 0.1 mm 5 mps 766 mmHg 80%
    01:00 +4°C° 0.1 mm 4 mps 766 mmHg 79%
    02:00 +3°C° 0.1 mm 4 mps 766 mmHg 79%
    03:00 +2°C° 0.1 mm 5 mps 767 mmHg 79%
    04:00 +2°C° 0.1 mm 5 mps 767 mmHg 79%
    05:00 +2°C° 0 mm 5 mps 767 mmHg 79%
    06:00 +3°C° 0 mm 4 mps 768 mmHg 80%
    07:00 +3°C° 0 mm 4 mps 768 mmHg 80%
    08:00 +4°C° 0 mm 4 mps 769 mmHg 75%
    09:00 +5°C° 0 mm 4 mps 769 mmHg 70%
    10:00 +6°C° 0 mm 4 mps 770 mmHg 65%
    11:00 +6°C° 0 mm 4 mps 770 mmHg 62%
    12:00 +7°C° 0 mm 4 mps 770 mmHg 58%
    13:00 +7°C° 0 mm 5 mps 770 mmHg 55%
    14:00 +6°C° 0 mm 5 mps 770 mmHg 59%
    15:00 +6°C° 0 mm 5 mps 770 mmHg 63%
    16:00 +4°C° 0 mm 6 mps 770 mmHg 67%
    17:00 +4°C° 0 mm 6 mps 770 mmHg 68%
    18:00 +3°C° 0 mm 5 mps 770 mmHg 69%
    19:00 +2°C° 0 mm 5 mps 770 mmHg 70%
    20:00 +2°C° 0 mm 5 mps 771 mmHg 71%
    21:00 +2°C° 0 mm 5 mps 771 mmHg 71%
    22:00 +2°C° 0 mm 5 mps 771 mmHg 71%
    23:00 +2°C° 0 mm 5 mps 771 mmHg 70%

    Day after tomorrow, 20 December, Wednesday

    Time Temperature Precipitation Wind Pressure Humidity
    00:00 +1°C° 0 mm 5 mps 771 mmHg 70%
    01:00 +1°C° 0 mm 4 mps 771 mmHg 70%
    02:00 +1°C° 0 mm 4 mps 771 mmHg 69%
    03:00 +1°C° 0 mm 4 mps 771 mmHg 68%
    04:00 +1°C° 0 mm 4 mps 770 mmHg 67%
    05:00 +1°C° 0 mm 4 mps 771 mmHg 66%
    06:00 +1°C° 0 mm 4 mps 771 mmHg 64%
    07:00 +1°C° 0 mm 4 mps 771 mmHg 63%
    08:00 +3°C° 0 mm 4 mps 771 mmHg 57%
    09:00 +4°C° 0 mm 4 mps 771 mmHg 51%
    10:00 +5°C° 0 mm 4 mps 771 mmHg 45%
    11:00 +6°C° 0 mm 4 mps 771 mmHg 43%
    12:00 +8°C° 0 mm 3 mps 770 mmHg 40%
    13:00 +8°C° 0 mm 3 mps 770 mmHg 37%
    14:00 +8°C° 0 mm 3 mps 770 mmHg 42%
    15:00 +7°C° 0 mm 3 mps 770 mmHg 47%
    16:00 +5°C° 0 mm 4 mps 769 mmHg 52%
    17:00 +4°C° 0 mm 4 mps 770 mmHg 54%
    18:00 +4°C° 0 mm 4 mps 770 mmHg 56%
    19:00 +3°C° 0 mm 4 mps 770 mmHg 58%
    20:00 +3°C° 0 mm 3 mps 770 mmHg 59%
    21:00 +3°C° 0 mm 3 mps 770 mmHg 60%
    22:00 +2°C° 0 mm 3 mps 771 mmHg 60%
    23:00 +2°C° 0 mm 3 mps 770 mmHg 60%

    21 December, Thursday

    Time Temperature Precipitation Wind Pressure Humidity
    00:00 +2°C° 0 mm 3 mps 770 mmHg 59%
    01:00 +2°C° 0 mm 3 mps 770 mmHg 59%
    02:00 +2°C° 0 mm 3 mps 770 mmHg 58%
    03:00 +2°C° 0 mm 3 mps 770 mmHg 57%
    04:00 +1°C° 0 mm 4 mps 770 mmHg 57%
    05:00 +1°C° 0 mm 4 mps 770 mmHg 56%
    06:00 +1°C° 0 mm 4 mps 770 mmHg 56%
    07:00 +1°C° 0 mm 4 mps 771 mmHg 56%
    08:00 +3°C° 0 mm 4 mps 771 mmHg 52%
    09:00 +5°C° 0 mm 4 mps 771 mmHg 48%
    10:00 +6°C° 0 mm 4 mps 771 mmHg 44%
    11:00 +7°C° 0 mm 4 mps 770 mmHg 43%
    12:00 +7°C° 0 mm 5 mps 770 mmHg 41%
    13:00 +8°C° 0 mm 5 mps 770 mmHg 39%
    14:00 +7°C° 0 mm 6 mps 770 mmHg 45%
    15:00 +5°C° 0 mm 6 mps 770 mmHg 51%
    16:00 +4°C° 0 mm 6 mps 770 mmHg 56%
    17:00 +3°C° 0 mm 6 mps 770 mmHg 59%
    18:00 +3°C° 0 mm 6 mps 770 mmHg 62%
    19:00 +2°C° 0 mm 6 mps 771 mmHg 65%
    20:00 +2°C° 0 mm 6 mps 771 mmHg 67%
    21:00 +2°C° 0 mm 6 mps 771 mmHg 69%
    22:00 +1°C° 0 mm 6 mps 771 mmHg 70%
    23:00 +1°C° 0 mm 6 mps 771 mmHg 70%

    22 December, Friday

    Time Temperature Precipitation Wind Pressure Humidity
    00:00 +1°C° 0 mm 6 mps 771 mmHg 70%
    01:00 +1°C° 0 mm 6 mps 771 mmHg 70%
    02:00 +1°C° 0 mm 6 mps 770 mmHg 69%
    03:00 +1°C° 0 mm 6 mps 770 mmHg 68%
    04:00 0°C° 0 mm 7 mps 770 mmHg 66%
    05:00 0°C° 0 mm 7 mps 770 mmHg 64%
    06:00 0°C° 0 mm 7 mps 770 mmHg 62%
    07:00 0°C° 0 mm 7 mps 770 mmHg 60%
    08:00 +3°C° 0 mm 7 mps 769 mmHg 53%
    09:00 +5°C° 0 mm 7 mps 769 mmHg 47%
    10:00 +8°C° 0 mm 7 mps 769 mmHg 40%
    11:00 +9°C° 0 mm 7 mps 768 mmHg 37%
    12:00 +10°C° 0 mm 7 mps 768 mmHg 34%
    13:00 +11°C° 0 mm 7 mps 767 mmHg 31%
    14:00 +10°C° 0 mm 7 mps 767 mmHg 37%
    15:00 +9°C° 0 mm 7 mps 767 mmHg 43%
    16:00 +6°C° 0 mm 7 mps 766 mmHg 48%
    17:00 +6°C° 0 mm 7 mps 767 mmHg 50%
    18:00 +5°C° 0 mm 7 mps 767 mmHg 53%
    19:00 +4°C° 0 mm 7 mps 767 mmHg 55%
    20:00 +4°C° 0 mm 7 mps 767 mmHg 56%
    21:00 +4°C° 0 mm 7 mps 767 mmHg 57%
    22:00 +3°C° 0 mm 7 mps 767 mmHg 59%
    23:00 +2°C° 0 mm 8 mps 766 mmHg 58%

    23 December, Saturday

    Time Temperature Precipitation Wind Pressure Humidity
    00:00 +2°C° 0 mm 8 mps 766 mmHg 57%
    01:00 +2°C° 0 mm 8 mps 766 mmHg 56%
    02:00 +2°C° 0 mm 8 mps 765 mmHg 56%
    03:00 +2°C° 0 mm 9 mps 765 mmHg 55%
    04:00 +2°C° 0 mm 9 mps 765 mmHg 55%
    05:00 +2°C° 0 mm 9 mps 765 mmHg 55%
    06:00 +2°C° 0 mm 9 mps 765 mmHg 55%
    07:00 +2°C° 0 mm 8 mps 765 mmHg 55%
    08:00 +3°C° 0 mm 9 mps 765 mmHg 52%
    09:00 +6°C° 0 mm 9 mps 765 mmHg 49%
    10:00 +7°C° 0 mm 10 mps 765 mmHg 46%
    11:00 +8°C° 0 mm 10 mps 765 mmHg 47%
    12:00 +8°C° 0 mm 10 mps 765 mmHg 48%
    13:00 +8°C° 0 mm 10 mps 764 mmHg 49%
    14:00 +7°C° 0 mm 10 mps 764 mmHg 53%
    15:00 +6°C° 0 mm 10 mps 765 mmHg 58%
    16:00 +3°C° 0 mm 10 mps 765 mmHg 63%
    17:00 +3°C° 0 mm 10 mps 765 mmHg 65%
    18:00 +2°C° 0 mm 9 mps 766 mmHg 68%
    19:00 +1°C° 0 mm 9 mps 766 mmHg 70%
    20:00 +1°C° 0 mm 9 mps 767 mmHg 68%
    21:00 0°C° 0 mm 9 mps 767 mmHg 66%
    22:00 0°C° 0 mm 9 mps 767 mmHg 65%
    23:00 0°C° 0 mm 9 mps 767 mmHg 63%
    Show more